sat.trackr.live / text

‹ back to catalog

STARLINK-37639

NORAD 69146 · 2026-110Y

PAYLOAD ACTIVE UNKNOWN

§ Identity

Operator
Country
US
Launch date
2026-05-20
Launch site
AFWTR
Launch vehicle
Mass (kg)
RCS (m²)

Purposes: comms

External: N2YO · Heavens-Above · Gunter

§ Orbital elements

Epoch: 2026-09-19T23:56:41.390592Z

Period
93.90 min
Inclination
97.2827°
Eccentricity
0.0000910
Mean motion
15.33472302 rev/d
Perigee alt
464.8 km
Apogee alt
466.1 km
Semi-major
6,843.6 km
B*
3.9697e-4
RAAN
98.1368°
Arg perigee
129.3833°
Mean anomaly
230.7490°
Rev number
2,014

§ Raw data

STARLINK-376391 69146U 26110Y   26262.99770128  .00012773  00000+0  39697-3 0  99932 69146  97.2827  98.1368 0000910 129.3833 230.7490 15.33472302 20149

JSON: /api/v1/satellites/69146 · /tle

For live sub-satellite position, see the globe view (requires WebGL).

§ Visibility from observer

Set your observer location to see the next 7 days of passes ≥ 10°. The values pass through the URL so the page stays shareable.

No JS? Fill the form by hand. The geolocation button needs JavaScript.